Waarnemingen

Advertentie
Mijn weer
Hoogeveen aws, Nederland (6279): temperatuur & dauwpunt: 22.02.2017 06:00:00 - 28.02.2017 06:00:00 (CET)Hoogeveen aws, Nederland (6279): temperatuur 5cm: 22.02.2017 06:00:00 - 28.02.2017 06:00:00 (CET)Hoogeveen aws, Nederland (6279): windsnelheid & windstoten: 22.02.2017 06:00:00 - 28.02.2017 06:00:00 (CET)Hoogeveen aws, Nederland (6279): windrichting: 22.02.2017 06:00:00 - 28.02.2017 06:00:00 (CET)Hoogeveen aws, Nederland (6279): luchtdruk: 22.02.2017 06:00:00 - 28.02.2017 06:00:00 (CET)Hoogeveen aws, Nederland (6279): zicht: 22.02.2017 06:00:00 - 28.02.2017 06:00:00 (CET)Hoogeveen aws, Nederland (6279): neerslag: 22.02.2017 06:00:00 - 28.02.2017 06:00:00 (CET)
Datum & Tijd tt [°C] td [°C] tt 5cm [°C] ff [km/u] ff [kn] fx [km/u] fx [kn] dd ppp [hPa] vv [km] rr [mm]
28.02.2017 06:00:00 4,6 1,6 4,2 30 16 - - ZZW 986,6 50 -
28.02.2017 05:00:00 4,5 1,5 3,8 29 16 50 27 ZZW 986,3 49 0,0
28.02.2017 04:00:00 5,1 1,6 4,5 29 16 47 25 ZZW 986,0 47 0,0
28.02.2017 03:00:00 5,2 1,9 4,5 25 14 47 25 ZZW 986,5 50 0,0
28.02.2017 02:00:00 5,3 2,3 4,6 40 21 58 31 ZZW 986,6 12 0,1
28.02.2017 01:00:00 5,7 1,7 4,5 22 12 43 23 ZZW 986,8 46 0,0
28.02.2017 00:00:00 6,2 2,1 5,1 29 16 47 25 ZW 987,4 48 0,0
27.02.2017 23:00:00 6,5 3,5 5,6 22 12 40 21 ZZW 987,0 48 0,0
27.02.2017 22:00:00 7,3 4,6 6,6 29 16 47 25 ZZW 987,5 50 0,0
27.02.2017 21:00:00 7,4 5,3 6,8 32 18 50 27 Z 987,4 50 0,0
27.02.2017 20:00:00 7,5 5,6 6,9 29 16 54 29 Z 987,5 50 0,0
27.02.2017 19:00:00 7,8 5,6 7,2 29 16 43 23 Z 988,7 35 0,3
27.02.2017 18:00:00 8,9 6,8 8,2 36 19 68 37 Z 989,5 6 2,3
27.02.2017 17:00:00 9,1 7,3 8,5 18 10 50 27 Z 990,3 13 1,5
27.02.2017 16:00:00 10,6 6,2 9,6 25 14 47 25 Z 991,6 17 0,0
27.02.2017 15:00:00 11,3 5,7 10,7 29 16 50 27 Z 993,0 28 0,0
27.02.2017 14:00:00 11,1 5,5 10,5 32 18 47 25 Z 994,6 48 0,0
27.02.2017 13:00:00 10,8 5,5 10,2 29 16 43 23 Z 996,0 50 0,0
27.02.2017 12:00:00 10,8 5,5 10,4 29 16 50 27 Z 997,4 50 0,0
27.02.2017 11:00:00 10,6 5,0 10,3 32 18 50 27 Z 998,5 50 0,0
27.02.2017 10:00:00 10,2 5,9 9,8 29 16 43 23 Z 999,2 50 0,0
27.02.2017 09:00:00 9,7 6,2 9,1 29 16 43 23 ZZW 1000,3 46 0,0
27.02.2017 08:00:00 9,5 6,4 8,6 22 12 32 18 Z 1001,1 46 0,0
27.02.2017 07:00:00 8,6 6,3 7,5 18 10 32 18 Z 1001,5 36 0,0
27.02.2017 06:00:00 9,3 6,8 8,5 22 12 36 19 Z 1002,2 29 0,0
27.02.2017 05:00:00 9,7 7,1 8,9 25 14 36 19 Z 1002,9 28 0,0
27.02.2017 04:00:00 9,6 7,1 8,7 25 14 32 18 Z 1003,5 23 0,0
27.02.2017 03:00:00 9,6 6,9 8,5 22 12 32 18 ZZW 1004,2 29 0,0
27.02.2017 02:00:00 9,5 7,0 8,7 22 12 36 19 Z 1004,8 24 0,0
27.02.2017 01:00:00 9,7 6,8 8,9 25 14 36 19 ZZW 1005,2 27 0,0
27.02.2017 00:00:00 9,8 6,9 9,1 25 14 40 21 ZZW 1005,5 28 0,0
26.02.2017 23:00:00 9,7 7,0 9,0 25 14 40 21 ZZW 1006,0 25 0,0
26.02.2017 22:00:00 9,4 7,2 8,8 22 12 36 19 ZZW 1006,3 24 0,0
26.02.2017 21:00:00 9,3 7,3 8,6 22 12 32 18 Z 1006,6 21 0,0
26.02.2017 20:00:00 9,3 7,2 8,6 22 12 32 18 ZZW 1006,8 23 0,0
26.02.2017 19:00:00 9,1 7,2 8,5 22 12 32 18 Z 1007,2 21 0,0
26.02.2017 18:00:00 9,0 7,3 8,4 25 14 36 19 Z 1007,2 17 0,0
26.02.2017 17:00:00 9,0 7,5 8,6 29 16 36 19 ZZW 1007,3 9 0,0
26.02.2017 16:00:00 8,8 7,2 8,3 25 14 36 19 ZZW 1007,8 12 0,0
26.02.2017 15:00:00 8,4 7,6 8,1 25 14 40 21 ZZW 1008,0 5 0,0
26.02.2017 14:00:00 8,6 7,3 8,4 25 14 40 21 ZZW 1008,2 13 0,0
26.02.2017 13:00:00 8,1 7,2 7,9 22 12 36 19 ZZW 1008,3 11 0,0
26.02.2017 12:00:00 7,7 6,9 7,4 25 14 36 19 ZZW 1008,7 10 0,1
26.02.2017 11:00:00 7,3 6,8 7,0 25 14 36 19 ZW 1008,7 3,9 0,1
26.02.2017 10:00:00 6,9 6,5 6,7 22 12 36 19 ZW 1008,8 2,1 0,6
26.02.2017 09:00:00 6,9 5,8 6,5 25 14 36 19 ZW 1008,3 13 0,0
26.02.2017 08:00:00 6,8 5,7 6,3 25 14 36 19 ZZW 1008,1 12 0,0
26.02.2017 07:00:00 6,7 5,4 6,2 22 12 40 21 ZZW 1007,9 6 0,5
26.02.2017 06:00:00 7,1 5,0 6,4 22 12 36 19 ZW 1008,1 17 0,0
26.02.2017 05:00:00 6,6 4,8 6,0 25 14 36 19 ZZW 1008,3 19 0,0
26.02.2017 04:00:00 6,4 5,0 5,9 25 14 36 19 ZZW 1008,8 10 0,2
26.02.2017 03:00:00 6,5 4,9 6,0 25 14 36 19 ZZW 1009,4 11 0,4
26.02.2017 02:00:00 6,7 4,8 6,0 25 14 43 23 ZZW 1009,9 11 0,4
26.02.2017 01:00:00 7,0 4,6 6,4 29 16 40 21 ZZW 1010,2 16 0,0
26.02.2017 00:00:00 7,0 4,5 6,2 25 14 36 19 ZZW 1010,7 20 0,2
25.02.2017 23:00:00 6,9 4,5 6,2 22 12 36 19 ZZW 1011,2 15 0,4
25.02.2017 22:00:00 7,2 4,2 6,4 25 14 40 21 ZW 1011,2 13 0,0
25.02.2017 21:00:00 7,4 3,3 6,7 29 16 43 23 ZZW 1011,6 29 0,0
25.02.2017 20:00:00 7,2 2,7 6,4 25 14 40 21 ZZW 1012,0 32 0,0
25.02.2017 19:00:00 6,7 2,5 6,1 25 14 36 19 ZZW 1012,6 35 0,0
25.02.2017 18:00:00 6,5 2,1 5,8 22 12 36 19 ZZW 1012,8 37 0,0
25.02.2017 17:00:00 6,2 2,3 5,7 25 14 40 21 Z 1013,1 31 0,0
25.02.2017 16:00:00 5,9 2,6 5,5 25 14 43 23 Z 1013,8 23 0,0
25.02.2017 15:00:00 5,5 2,6 5,2 25 14 40 21 Z 1014,6 19 0,0
25.02.2017 14:00:00 4,8 2,7 4,4 25 14 40 21 Z 1015,3 11 0,7
25.02.2017 13:00:00 4,6 2,4 4,2 22 12 36 19 Z 1016,3 12 0,6
25.02.2017 12:00:00 4,2 2,2 3,9 25 14 40 21 ZZW 1017,4 13 0,4
25.02.2017 11:00:00 3,8 1,7 3,6 25 14 36 19 ZZW 1017,7 12 0,0
25.02.2017 10:00:00 3,3 1,3 3,0 22 12 32 18 ZZW 1017,6 12 0,0
25.02.2017 09:00:00 2,5 0,8 2,0 18 10 25 14 ZZW 1017,7 10 0,0
25.02.2017 08:00:00 1,7 0,6 1,0 14 8 18 10 Z 1018,1 8 0,0
25.02.2017 07:00:00 1,2 0,5 0,6 14 8 18 10 Z 1018,5 5 0,0
25.02.2017 06:00:00 1,3 0,8 0,5 11 6 18 10 ZZW 1018,6 6 0,0
25.02.2017 05:00:00 1,0 0,6 0,2 11 6 18 10 ZZW 1018,3 7 0,0
25.02.2017 04:00:00 0,7 0,3 -0,6 11 6 14 8 ZZW 1018,5 8 0,0
25.02.2017 03:00:00 0,7 0,3 -0,4 11 6 14 8 ZZW 1019,0 8 0,0
25.02.2017 02:00:00 0,5 0,1 -0,7 11 6 18 10 ZZW 1019,4 9 0,0
25.02.2017 01:00:00 1,3 0,6 0,4 14 8 18 10 ZW 1019,1 17 0,0
25.02.2017 00:00:00 1,2 0,2 0,3 11 6 14 8 ZW 1019,0 19 0,0
24.02.2017 23:00:00 1,1 -0,1 0,0 11 6 14 8 WZW 1019,0 24 0,0
24.02.2017 22:00:00 1,5 0,1 0,2 11 6 14 8 WZW 1018,6 23 0,0
24.02.2017 21:00:00 1,4 -0,3 0,2 11 6 14 8 WZW 1018,0 23 0,0
24.02.2017 20:00:00 2,2 -0,3 1,2 11 6 18 10 W 1017,8 29 0,0
24.02.2017 19:00:00 3,4 -0,1 1,3 11 6 18 10 WNW 1017,1 36 0,0
24.02.2017 18:00:00 4,5 -0,3 3,2 14 8 32 18 WNW 1016,0 41 0,0
24.02.2017 17:00:00 5,9 0,8 5,5 22 12 32 18 W 1015,1 39 0,0
24.02.2017 16:00:00 5,9 0,8 5,3 18 10 50 27 W 1014,4 46 0,0
24.02.2017 15:00:00 6,2 1,7 6,7 18 10 36 19 W 1013,5 43 0,0
24.02.2017 14:00:00 4,5 1,7 4,1 18 10 50 27 W 1013,4 40 0,0
24.02.2017 13:00:00 6,9 -0,8 7,5 25 14 36 19 WNW 1012,5 38 0,0
24.02.2017 12:00:00 6,9 0,1 7,9 22 12 40 21 WNW 1011,9 40 0,0
24.02.2017 11:00:00 6,0 0,5 6,8 22 12 32 18 WNW 1011,1 22 0,0
24.02.2017 10:00:00 4,8 0,5 4,7 14 8 36 19 NW 1010,2 26 0,0
24.02.2017 09:00:00 3,3 0,3 2,5 14 8 25 14 W 1008,8 18 0,0
24.02.2017 08:00:00 3,1 -1,6 1,9 14 8 36 19 WNW 1007,3 21 0,0
24.02.2017 07:00:00 3,7 -1,2 2,7 29 16 40 21 WNW 1005,5 23 0,0
24.02.2017 06:00:00 3,7 -2,0 2,7 22 12 40 21 W 1003,9 24 0,0
24.02.2017 05:00:00 4,1 -1,6 3,2 25 14 40 21 WNW 1002,3 21 0,0
24.02.2017 04:00:00 4,0 -1,4 2,8 29 16 43 23 W 1000,6 21 0,0
24.02.2017 03:00:00 4,2 -0,1 3,2 29 16 54 29 WNW 999,1 21 0,0
24.02.2017 02:00:00 3,9 0,2 3,2 32 18 50 27 WNW 997,1 16 0,1
24.02.2017 01:00:00 3,8 1,6 3,2 40 21 65 35 NW 994,2 10 0,9
24.02.2017 00:00:00 3,9 2,5 3,5 40 21 61 33 NW 990,1 8 1,2
23.02.2017 23:00:00 5,4 4,9 5,0 22 12 47 25 WZW 986,6 6 0,1
23.02.2017 22:00:00 5,6 3,9 5,2 36 19 65 35 WZW 985,9 8 0,1
23.02.2017 21:00:00 5,7 4,2 5,3 36 19 79 43 WZW 985,2 6 0,0
23.02.2017 20:00:00 6,2 4,0 5,6 58 31 83 45 WZW 984,3 12 0,9
23.02.2017 19:00:00 6,6 3,5 6,0 61 33 86 47 WZW 983,2 13 0,3
23.02.2017 18:00:00 7,5 3,8 6,7 47 25 83 45 WZW 983,2 20 0,4
23.02.2017 17:00:00 8,7 3,9 7,5 47 25 83 45 ZW 983,4 12 0,1
23.02.2017 16:00:00 9,6 4,0 8,9 54 29 83 45 WZW 984,7 21 0,1
23.02.2017 15:00:00 10,0 5,9 9,2 47 25 72 39 ZW 985,2 48 0,0
23.02.2017 14:00:00 9,2 7,7 8,7 43 23 68 37 ZZW 986,4 10 0,8
23.02.2017 13:00:00 9,1 7,5 8,7 36 19 58 31 ZZW 988,3 9 0,1
23.02.2017 12:00:00 9,1 7,5 8,6 32 18 50 27 ZZW 991,0 12 0,5
23.02.2017 11:00:00 8,8 8,0 8,4 29 16 43 23 ZW 993,0 10 0,5
23.02.2017 10:00:00 8,6 8,1 8,3 22 12 47 25 ZZW 994,3 2,3 0,7
23.02.2017 09:00:00 8,4 7,7 7,2 25 14 36 19 ZW 995,4 9 2,2
23.02.2017 08:00:00 5,8 5,6 5,6 11 6 14 8 ZZO 997,1 7 1,9
23.02.2017 07:00:00 5,8 5,3 5,5 7 4 11 6 Z 998,3 8 2,2
23.02.2017 06:00:00 6,0 5,2 5,6 7 4 18 10 ZZW 999,4 11 0,7
23.02.2017 05:00:00 6,7 5,3 6,2 11 6 18 10 ZW 1000,2 11 0,4
23.02.2017 04:00:00 7,1 5,9 6,6 14 8 22 12 ZW 1001,5 11 0,0
23.02.2017 03:00:00 7,2 5,3 6,6 14 8 25 14 WZW 1002,0 19 0,0
23.02.2017 02:00:00 7,5 5,5 6,9 18 10 29 16 WZW 1002,4 18 0,0
23.02.2017 01:00:00 7,5 5,6 6,8 22 12 32 18 WZW 1002,7 19 0,0
23.02.2017 00:00:00 7,1 5,7 6,5 22 12 32 18 WZW 1002,7 16 0,0
22.02.2017 23:00:00 7,4 5,3 6,5 25 14 36 19 WZW 1003,0 22 0,0
22.02.2017 22:00:00 7,5 5,6 6,6 25 14 40 21 WZW 1003,0 20 0,0
22.02.2017 21:00:00 7,6 5,6 6,8 25 14 47 25 W 1002,9 24 0,0
22.02.2017 20:00:00 8,2 6,8 7,6 25 14 40 21 W 1002,5 19 0,0
22.02.2017 19:00:00 8,0 6,7 7,3 25 14 36 19 WZW 1002,5 34 0,0
22.02.2017 18:00:00 7,5 5,3 7,0 25 14 43 23 WZW 1002,5 38 0,0
22.02.2017 17:00:00 7,6 5,5 7,1 25 14 43 23 W 1002,5 46 0,0
22.02.2017 16:00:00 7,4 5,5 6,9 29 16 47 25 WZW 1002,5 36 0,6
22.02.2017 15:00:00 7,1 5,7 6,9 25 14 43 23 W 1002,8 12 0,7
22.02.2017 14:00:00 7,8 5,9 7,6 29 16 50 27 W 1003,0 10 0,7
22.02.2017 13:00:00 9,2 6,5 8,8 32 18 47 25 W 1002,6 31 0,1
22.02.2017 12:00:00 9,4 7,4 9,1 29 16 50 27 WZW 1002,9 29 0,2
22.02.2017 11:00:00 9,4 8,3 9,1 36 19 54 29 W 1003,0 8 0,4
22.02.2017 10:00:00 9,5 8,2 9,2 36 19 61 33 W 1002,4 7 0,0
22.02.2017 09:00:00 9,7 8,4 9,2 36 19 61 33 WZW 1002,2 6 0,2
22.02.2017 08:00:00 9,4 8,4 8,9 36 19 61 33 WZW 1002,0 6 0,3
22.02.2017 07:00:00 9,6 8,3 9,0 43 23 61 33 WZW 1001,8 11 1,6
22.02.2017 06:00:00 9,3 8,4 8,8 36 19 58 31 WZW 1002,4 6 3,3

tt = temperatuur
td = dauwpunt
tt 5cm = temperatuur 5cm
ff = windsnelheid
fx = windstoten
dd = windrichting
ppp = luchtdruk
vv = zicht
rr = neerslag

Weerstations in de omgeving